EN

Hourly Weather Rajahmundry

Today, 28 November, Saturday

Time Temperature Precipitation Wind Pressure Humidity
00:00 +22°C° 0.2 mm 3 mps 757 mmHg 85%
01:00 +22°C° 0.2 mm 3 mps 757 mmHg 83%
02:00 +22°C° 0.2 mm 4 mps 756 mmHg 81%
03:00 +22°C° 0.4 mm 4 mps 757 mmHg 81%
04:00 +21°C° 0.4 mm 4 mps 757 mmHg 81%
05:00 +22°C° 0 mm 4 mps 757 mmHg 83%
06:00 +22°C° 0.1 mm 5 mps 758 mmHg 81%
07:00 +23°C° 0.1 mm 5 mps 758 mmHg 79%
08:00 +25°C° 0.1 mm 5 mps 759 mmHg 78%
09:00 +26°C° 0 mm 5 mps 759 mmHg 76%
10:00 +27°C° 0 mm 5 mps 758 mmHg 73%
11:00 +27°C° 0 mm 5 mps 758 mmHg 71%
12:00 +27°C° 0 mm 5 mps 758 mmHg 72%
13:00 +28°C° 0 mm 4 mps 757 mmHg 72%
14:00 +28°C° 0 mm 4 mps 756 mmHg 73%
15:00 +27°C° 0 mm 4 mps 756 mmHg 76%
16:00 +27°C° 0 mm 3 mps 756 mmHg 79%
17:00 +26°C° 0 mm 3 mps 756 mmHg 82%
18:00 +26°C° 0 mm 2 mps 757 mmHg 82%
19:00 +25°C° 0 mm 2 mps 758 mmHg 83%
20:00 +25°C° 0 mm 2 mps 758 mmHg 83%
21:00 +24°C° 0 mm 2 mps 758 mmHg 83%
22:00 +24°C° 0 mm 2 mps 758 mmHg 83%
23:00 +24°C° 0 mm 2 mps 758 mmHg 82%

Tomorrow, 29 November, Sunday

Time Temperature Precipitation Wind Pressure Humidity
00:00 +24°C° 0 mm 2 mps 758 mmHg 81%
01:00 +23°C° 0 mm 2 mps 757 mmHg 80%
02:00 +23°C° 0 mm 2 mps 757 mmHg 79%
03:00 +23°C° 0 mm 2 mps 757 mmHg 79%
04:00 +23°C° 0 mm 2 mps 757 mmHg 79%
05:00 +21°C° 0 mm 2 mps 757 mmHg 79%
06:00 +24°C° 0 mm 2 mps 758 mmHg 76%
07:00 +25°C° 0 mm 3 mps 758 mmHg 73%
08:00 +26°C° 0 mm 3 mps 759 mmHg 70%
09:00 +28°C° 0 mm 4 mps 759 mmHg 65%
10:00 +29°C° 0 mm 4 mps 758 mmHg 61%
11:00 +30°C° 0 mm 5 mps 758 mmHg 56%
12:00 +30°C° 0 mm 5 mps 757 mmHg 55%
13:00 +32°C° 0 mm 4 mps 757 mmHg 53%
14:00 +32°C° 0 mm 4 mps 756 mmHg 52%
15:00 +29°C° 0 mm 4 mps 756 mmHg 58%
16:00 +28°C° 0 mm 3 mps 756 mmHg 65%
17:00 +26°C° 0 mm 3 mps 756 mmHg 71%
18:00 +25°C° 0 mm 2 mps 757 mmHg 74%
19:00 +25°C° 0 mm 2 mps 758 mmHg 77%
20:00 +24°C° 0 mm 2 mps 758 mmHg 80%
21:00 +24°C° 0 mm 2 mps 758 mmHg 80%
22:00 +24°C° 0 mm 2 mps 758 mmHg 81%
23:00 +23°C° 0 mm 2 mps 758 mmHg 82%

Day after tomorrow, 30 November, Monday

Time Temperature Precipitation Wind Pressure Humidity
00:00 +23°C° 0 mm 2 mps 757 mmHg 81%
01:00 +23°C° 0 mm 2 mps 757 mmHg 81%
02:00 +21°C° 0 mm 2 mps 756 mmHg 80%
03:00 +21°C° 0 mm 2 mps 757 mmHg 80%
04:00 +21°C° 0 mm 2 mps 757 mmHg 79%
05:00 +21°C° 0 mm 2 mps 757 mmHg 78%
06:00 +23°C° 0 mm 2 mps 757 mmHg 75%
07:00 +25°C° 0 mm 3 mps 758 mmHg 72%
08:00 +26°C° 0 mm 3 mps 759 mmHg 69%
09:00 +27°C° 0 mm 3 mps 758 mmHg 63%
10:00 +29°C° 0 mm 4 mps 758 mmHg 58%
11:00 +30°C° 0 mm 4 mps 758 mmHg 53%
12:00 +30°C° 0 mm 4 mps 757 mmHg 52%
13:00 +32°C° 0 mm 4 mps 756 mmHg 50%
14:00 +32°C° 0 mm 4 mps 756 mmHg 49%
15:00 +29°C° 0 mm 3 mps 756 mmHg 56%
16:00 +27°C° 0 mm 3 mps 756 mmHg 62%
17:00 +26°C° 0 mm 3 mps 756 mmHg 69%
18:00 +25°C° 0 mm 2 mps 757 mmHg 71%
19:00 +24°C° 0 mm 2 mps 758 mmHg 74%
20:00 +24°C° 0 mm 2 mps 758 mmHg 77%
21:00 +23°C° 0 mm 2 mps 758 mmHg 77%
22:00 +23°C° 0 mm 2 mps 758 mmHg 78%
23:00 +23°C° 0 mm 2 mps 758 mmHg 79%

1 December, Tuesday

Time Temperature Precipitation Wind Pressure Humidity
00:00 +21°C° 0 mm 2 mps 758 mmHg 79%
01:00 +21°C° 0 mm 2 mps 757 mmHg 78%
02:00 +21°C° 0 mm 2 mps 757 mmHg 78%
03:00 +21°C° 0 mm 2 mps 757 mmHg 77%
04:00 +20°C° 0 mm 2 mps 757 mmHg 77%
05:00 +20°C° 0 mm 2 mps 757 mmHg 76%
06:00 +23°C° 0 mm 2 mps 758 mmHg 73%
07:00 +24°C° 0 mm 3 mps 758 mmHg 71%
08:00 +25°C° 0 mm 3 mps 759 mmHg 68%
09:00 +26°C° 0 mm 3 mps 759 mmHg 63%
10:00 +28°C° 0 mm 4 mps 759 mmHg 57%
11:00 +29°C° 0 mm 4 mps 759 mmHg 52%
12:00 +30°C° 0 mm 4 mps 758 mmHg 50%
13:00 +30°C° 0 mm 4 mps 757 mmHg 49%
14:00 +30°C° 0 mm 4 mps 756 mmHg 47%
15:00 +28°C° 0 mm 3 mps 756 mmHg 53%
16:00 +27°C° 0 mm 3 mps 756 mmHg 58%
17:00 +25°C° 0 mm 2 mps 757 mmHg 64%
18:00 +25°C° 0 mm 2 mps 757 mmHg 66%
19:00 +24°C° 0 mm 2 mps 758 mmHg 69%
20:00 +23°C° 0 mm 2 mps 758 mmHg 71%
21:00 +23°C° 0 mm 2 mps 758 mmHg 71%
22:00 +23°C° 0 mm 2 mps 758 mmHg 71%
23:00 +21°C° 0 mm 2 mps 758 mmHg 70%

2 December, Wednesday

Time Temperature Precipitation Wind Pressure Humidity
00:00 +21°C° 0 mm 2 mps 757 mmHg 70%
01:00 +21°C° 0 mm 2 mps 757 mmHg 69%
02:00 +21°C° 0 mm 2 mps 756 mmHg 69%
03:00 +21°C° 0 mm 2 mps 757 mmHg 69%
04:00 +21°C° 0 mm 2 mps 757 mmHg 69%
05:00 +21°C° 0 mm 2 mps 757 mmHg 69%
06:00 +23°C° 0 mm 2 mps 757 mmHg 66%
07:00 +24°C° 0 mm 2 mps 758 mmHg 64%
08:00 +25°C° 0 mm 2 mps 758 mmHg 61%
09:00 +27°C° 0 mm 2 mps 758 mmHg 57%
10:00 +28°C° 0 mm 3 mps 758 mmHg 53%
11:00 +30°C° 0 mm 3 mps 757 mmHg 49%
12:00 +30°C° 0 mm 3 mps 757 mmHg 50%
13:00 +31°C° 0 mm 3 mps 756 mmHg 51%
14:00 +31°C° 0 mm 3 mps 755 mmHg 53%
15:00 +29°C° 0 mm 3 mps 755 mmHg 58%
16:00 +28°C° 0 mm 3 mps 755 mmHg 64%
17:00 +27°C° 0 mm 2 mps 755 mmHg 70%
18:00 +26°C° 0 mm 2 mps 756 mmHg 74%
19:00 +25°C° 0 mm 2 mps 756 mmHg 78%
20:00 +25°C° 0 mm 2 mps 757 mmHg 81%
21:00 +24°C° 0 mm 2 mps 757 mmHg 82%
22:00 +24°C° 0 mm 2 mps 757 mmHg 83%
23:00 +24°C° 0 mm 2 mps 757 mmHg 84%

3 December, Thursday

Time Temperature Precipitation Wind Pressure Humidity
00:00 +24°C° 0 mm 2 mps 756 mmHg 83%
01:00 +24°C° 0 mm 2 mps 756 mmHg 82%
02:00 +24°C° 0 mm 2 mps 755 mmHg 81%
03:00 +23°C° 0 mm 2 mps 756 mmHg 80%
04:00 +23°C° 0 mm 2 mps 756 mmHg 79%
05:00 +23°C° 0 mm 2 mps 756 mmHg 78%
06:00 +24°C° 0 mm 2 mps 756 mmHg 74%
07:00 +26°C° 0 mm 2 mps 757 mmHg 71%
08:00 +27°C° 0 mm 2 mps 758 mmHg 67%
09:00 +28°C° 0 mm 2 mps 757 mmHg 63%
10:00 +30°C° 0 mm 2 mps 757 mmHg 60%
11:00 +31°C° 0 mm 2 mps 757 mmHg 56%
12:00 +32°C° 0 mm 2 mps 756 mmHg 55%
13:00 +32°C° 0 mm 2 mps 755 mmHg 54%
14:00 +32°C° 0 mm 2 mps 755 mmHg 53%
15:00 +31°C° 0 mm 2 mps 755 mmHg 59%
16:00 +29°C° 0 mm 2 mps 755 mmHg 65%
17:00 +28°C° 0 mm 2 mps 755 mmHg 71%
18:00 +27°C° 0 mm 2 mps 756 mmHg 75%
19:00 +26°C° 0 mm 2 mps 756 mmHg 80%
20:00 +25°C° 0 mm 2 mps 757 mmHg 84%
21:00 +25°C° 0 mm 2 mps 757 mmHg 86%
22:00 +25°C° 0 mm 2 mps 757 mmHg 88%
23:00 +25°C° 0 mm 2 mps 757 mmHg 89%
Show more